Location: Banios
(43.0451°N, 0.2335°E)
Time: 14:06:40
(UTC+00:00)

A-11 Canister half - Pass Details

Date: 12 May 2021
Orbit: 1513 x 1686 km, 47.2° (Epoch: 14 June)

Event Time Altitude Azimuth Distance (km) Brightness Sun altitude
Rises 22:03:27 0° 294° (WNW) 4,686 12.4 -23.4°
Reaches altitude 10° 22:06:49 10° 286° (WNW) 3,717 11.6 -23.7°
Maximum altitude 22:14:52 34° 226° (SW) 2,386 9.8 -24.4°
Enters shadow 22:17:47 28° 196° (SSW) 2,618 9.8 -24.6°
Drops below altitude 10° 22:23:09 10° 167° (SSE) 3,816 - -25.0°
Sets 22:26:41 0° 158° (SSE) 4,825 - -25.3°
